Regional Weather Roundup
Issued by NWS

Home | Current Version | Previous Version | Graphics & Text | Print | Product List | Glossary On
Versions: 1 2 3 4 5 6 7 8 9 10 11 12 13 14 15 16 17 18 19 20 21 22 23 24 25 26 27 28 29 30 31 32 33 34 35 36 37 38 39 40 41 42 43 44 45 46 47 48 49 50
000
ASUS44 KMEG 251000
RWRTN
TENNESSEE HOURLY STATE WEATHER ROUNDUP
NATIONAL WEATHER SERVICE MEMPHIS TN
400 AM CST THU DEC 25 2014

TNZ002-004-019-021-049-052-054-088>092-251100-
WEST TENNESSEE

CITY           SKY/WX    TMP DP  RH WIND       PRES   REMARKS
MEMPHIS INTL   PTCLDY    38  33  82 SW6       30.07R WCI  33
NWS MEMPHIS      N/A     41 N/A N/A MISG        N/A
JACKSON        CLOUDY    41  32  70 W8        30.06R
DYERSBURG      CLOUDY    39  27  60 CALM      30.06S
UNION CITY     CLOUDY    37  34  87 SW8       30.03R WCI  31
PARIS          CLOUDY    36  32  87 W5        30.03R WCI  32
LEXINGTON      CLOUDY    34  32  93 CALM      30.04R
SAVANNAH       CLOUDY    37  37 100 SW5       30.07R WCI  34
$$

TNZ008-025-027-028-033-062-065-066-251100-
NORTH MIDDLE TENNESSEE

CITY           SKY/WX    TMP DP  RH WIND       PRES   REMARKS
NASHVILLE      CLOUDY    41  32  70 W9        30.04R
CLARKSVILLE    CLOUDY    40  35  83 W5        30.02R
COOKEVILLE     CLOUDY    39  36  87 W3        30.00R
CROSSVILLE     CLOUDY    37  33  85 W8        29.98R WCI  31
$$

TNZ061-075-076-078-094-096-097-251100-
SOUTH MIDDLE TENNESSEE

CITY           SKY/WX    TMP DP  RH WIND       PRES   REMARKS
FAYETTEVILLE   CLOUDY    37  34  87 MISG      30.03S
TULLAHOMA      CLOUDY    37  34  87 W6        30.03R WCI  33
WINCHESTER     CLOUDY    39  34  81 W5        30.04R
SHELBYVILLE    CLOUDY    39  37  93 W5        30.05R
$$

TNZ017-018-042-046-047-251100-
NORTHEAST TENNESSEE

CITY           SKY/WX    TMP DP  RH WIND       PRES   REMARKS
TRI CITIES     CLOUDY    41  34  76 W12G21    29.93R
ELIZABETHTON   CLOUDY    39  36  87 W13       29.92R WCI  32
$$

TNZ012-013-036-069-073-074-251100-
CENTRAL EAST TENNESSEE

CITY           SKY/WX    TMP DP  RH WIND       PRES   REMARKS
KNOXVILLE      CLOUDY    40  34  79 SW10      30.00R WCI  33
OAK RIDGE      MOCLDY    41  36  82 SW3       30.01R
GATLINBURG     CLOUDY    39  32  75 W8        30.00R WCI  34
$$

TNZ083-085-099-251100-
SOUTHEAST TENNESSEE

CITY           SKY/WX    TMP DP  RH WIND       PRES   REMARKS
CHATTANOOGA    CLOUDY    43  33  68 W8        30.04R
$$

SKY/WX REPORTED AS FAIR MEANS FEW OR NO CLOUDS BELOW
12 THOUSAND FEET.




USA.gov is the U.S. government's official web portal to all federal, state and local government web resources and services.